sat.trackr.live / text

‹ back to catalog

HYPERVIEW 1G (RS66S)

NORAD 61772 · 2024-199AP

PAYLOAD ACTIVE UNKNOWN

§ Identity

Operator
Country
CIS
Launch date
2024-11-04
Launch site
VOSTO
Launch vehicle
Mass (kg)
RCS (m²)

Purposes: comms

External: N2YO · Heavens-Above · Gunter

§ Orbital elements

Epoch: 2026-08-17T07:37:32.107872Z

Period
88.55 min
Inclination
97.2507°
Eccentricity
0.0006565
Mean motion
16.26267348 rev/d
Perigee alt
198.3 km
Apogee alt
206.9 km
Semi-major
6,580.7 km
B*
1.2848e-3
RAAN
113.3438°
Arg perigee
216.1019°
Mean anomaly
143.9831°
Rev number
14,438

§ Raw data

HYPERVIEW 1G (RS66S)1 61772U 24199AP  26229.31773273  .04014987  24027-5  12848-2 0  99902 61772  97.2507 113.3438 0006565 216.1019 143.9831 16.26267348144384

JSON: /api/v1/satellites/61772 · /tle

For live sub-satellite position, see the globe view (requires WebGL).

§ Visibility from observer

Set your observer location to see the next 7 days of passes ≥ 10°. The values pass through the URL so the page stays shareable.

No JS? Fill the form by hand. The geolocation button needs JavaScript.

§ Radio — SatNOGS DB

ModeDescriptionDownlinkUplink
GMSK USP Mode U - GMSK2k4 USP 436.540 MHz
GMSK USP Mode U - GMSK2k4 USP 436.600 MHz
DVB-S2 Mode X - DVB-S2 10.465 GHz

3 transmitters · refreshed weekly from db.satnogs.org